Location: Bonaustraße
(48.4603°N, 11.9280°E)
Time: 09:57:18
(UTC+01:00)

N. Korean satellite - Visible Passes

Search period start: 21 January 2021 00:00
Search period end: 31 January 2021 00:00
Orbit: 453 x 502 km, 97.2° (Epoch: 20 January)

Date Brightness Start Highest point End Pass type
(mag) Time Alt. Az. Time Alt. Az. Time Alt. Az.
21 Jan 6.3 05:57:53 10° N 06:01:24 71° WNW 06:04:50 10° SSW visible
22 Jan 7.2 05:31:23 10° NNE 05:34:49 52° E 05:38:10 10° S visible
22 Jan 8.3 07:05:59 10° NNW 07:07:43 13° WNW 07:09:25 10° W visible
22 Jan 9.7 17:43:46 10° SW 17:46:27 19° W 17:49:08 10° NW visible
23 Jan 8.7 05:05:10 10° NE 05:08:07 25° E 05:11:01 10° SSE visible
23 Jan 7.5 06:38:30 10° NNW 06:41:23 24° WNW 06:44:11 10° WSW visible
24 Jan 9.8 04:39:39 10° ENE 04:41:18 13° E 04:42:57 10° ESE visible
24 Jan 6.6 06:11:33 10° N 06:14:55 47° WNW 06:18:14 10° SSW visible
25 Jan 6.5 05:44:53 10° NNE 05:48:23 79° ESE 05:51:48 10° S visible
25 Jan 9.9 17:58:14 10° WSW 18:00:08 14° W 18:02:02 10° WNW visible
26 Jan 8.0 05:18:29 10° NNE 05:21:44 36° E 05:24:54 10° SSE visible
26 Jan 8.0 06:52:26 10° NNW 06:54:48 17° WNW 06:57:08 10° WSW visible
27 Jan 9.3 04:52:31 10° NE 04:54:58 18° E 04:57:23 10° SE visible
27 Jan 7.1 06:25:16 10° N 06:28:24 32° WNW 06:31:29 10° SW visible
28 Jan 6.3 05:58:26 10° N 06:01:54 69° WNW 06:05:17 10° SSW visible
29 Jan 7.2 05:31:53 10° NNE 05:35:17 53° E 05:38:37 10° S visible
29 Jan 8.3 07:06:35 10° NW 07:08:10 13° WNW 07:09:45 10° W visible
29 Jan 9.7 17:44:23 10° SW 17:46:58 18° W 17:49:32 10° NW visible
30 Jan 8.7 05:05:39 10° NE 05:08:34 25° E 05:11:26 10° SSE visible
30 Jan 7.6 06:39:02 10° NNW 06:41:49 23° WNW 06:44:34 10° WSW visible
